| time (UTC) | temp F | wind direction | speed MPH | gust MPH | rain 1hr in | rain 24hr in | rain mn in | humidity % | barometer mb |
| 20260502163201 | 58 | 333 | 0.0 | 0.0 | 0.00 | 0.00 | 0.00 | 60 | 1007.5 |
| 20260502161202 | 58 | 333 | 0.0 | 0.0 | 0.00 | 0.00 | 0.00 | 59 | 1007.4 |
| 20260502151202 | 59 | 333 | 0.0 | 0.0 | 0.00 | 0.00 | 0.00 | 56 | 1007.7 |
| 20260502123203 | 65 | 351 | 0.0 | 0.0 | 0.00 | 0.00 | 0.00 | 47 | 1006.9 |
| 20260502121202 | 65 | 353 | 0.0 | 0.0 | 0.00 | 0.00 | 0.00 | 45 | 1006.7 |
| 20260502115202 | 66 | 358 | 0.0 | 0.0 | 0.00 | 0.00 | 0.00 | 44 | 1006.4 |
| 20260502113206 | 67 | 355 | 0.0 | 0.0 | 0.00 | 0.00 | 0.00 | 44 | 1006.3 |
| 20260502111202 | 69 | 353 | 0.0 | 0.0 | 0.00 | 0.00 | 0.00 | 41 | 1005.8 |
| 20260502105201 | 70 | 354 | 0.0 | 0.0 | 0.00 | 0.00 | 0.00 | 37 | 1005.6 |
| 20260502103201 | 71 | 35 | 0.0 | 0.0 | 0.00 | 0.00 | 0.00 | 30 | 1005.1 |
| 20260502101201 | 73 | 35 | 0.0 | 0.0 | 0.00 | 0.00 | 0.00 | 27 | 1004.9 |
| 20260502091203 | 75 | 35 | 0.0 | 5.0 | 0.00 | 0.00 | 0.00 | 22 | 1004.1 |
| 20260502071201 | 79 | 22 | 0.0 | 14.0 | 0.00 | 0.00 | 0.00 | 19 | 1002.6 |
| 20260502065201 | 80 | 26 | 2.0 | 14.0 | 0.00 | 0.00 | 0.00 | 18 | 1002.6 |
| 20260502063201 | 82 | 31 | 3.0 | 13.0 | 0.00 | 0.00 | 0.00 | 18 | 1002.3 |
| 20260502061200 | 82 | 72 | 6.0 | 16.0 | 0.00 | 0.00 | 0.00 | 18 | 1001.7 |
| 20260502054909 | 83 | 46 | 6.0 | 16.0 | 0.00 | 0.00 | 0.00 | 17 | 1001.6 |
| 20260502050909 | 82 | 333 | 1.0 | 18.0 | 0.00 | 0.00 | 0.00 | 18 | 1000.8 |
| 20260502044908 | 82 | 72 | 7.0 | 20.0 | 0.00 | 0.00 | 0.00 | 17 | 1000.7 |
| 20260502034907 | 81 | 309 | 7.0 | 26.0 | 0.00 | 0.00 | 0.00 | 16 | 1000.3 |
| 20260502032908 | 80 | 50 | 12.0 | 18.0 | 0.00 | 0.00 | 0.00 | 16 | 1000.1 |
| 20260502030906 | 81 | 317 | 16.0 | 18.0 | 0.00 | 0.00 | 0.00 | 17 | 1000.0 |
| 20260502024906 | 80 | 323 | 8.0 | 19.0 | 0.00 | 0.00 | 0.00 | 17 | 999.9 |
| 20260502022907 | 80 | 299 | 7.0 | 16.0 | 0.00 | 0.00 | 0.00 | 16 | 999.5 |
| 20260502020908 | 80 | 310 | 10.0 | 16.0 | 0.00 | 0.00 | 0.00 | 17 | 999.5 |
| 20260502014907 | 79 | 36 | 14.0 | 11.0 | 0.00 | 0.00 | 0.00 | 17 | 999.6 |
| 20260502012906 | 78 | 324 | 10.0 | 0.0 | 0.00 | 0.00 | 0.00 | 18 | 999.4 |
| 20260502010906 | 76 | 32 | 3.0 | 0.0 | 0.00 | 0.00 | 0.00 | 26 | 999.3 |
| 20260502004909 | 74 | 250 | 0.0 | 0.0 | 0.00 | 0.00 | 0.00 | 29 | 999.4 |
| 20260502002909 | 72 | 48 | 0.0 | 0.0 | 0.00 | 0.00 | 0.00 | 31 | 999.1 |
| 20260502000907 | 71 | 127 | 0.0 | 0.0 | 0.00 | 0.00 | 0.00 | 38 | 999.1 |
| 20260501234906 | 69 | 107 | 0.0 | 0.0 | 0.00 | 0.00 | 0.00 | 39 | 999.0 |
| 20260501232907 | 68 | 186 | 0.0 | 0.0 | 0.00 | 0.00 | 0.00 | 41 | 998.4 |
| 20260501230907 | 66 | 58 | 0.0 | 0.0 | 0.00 | 0.00 | 0.00 | 46 | 998.5 |
| 20260501224907 | 64 | 152 | 0.0 | 0.0 | 0.00 | 0.00 | 0.00 | 52 | 998.1 |
| 20260501222908 | 63 | 221 | 0.0 | 0.0 | 0.00 | 0.00 | 0.00 | 54 | 997.5 |
| 20260501220908 | 61 | 228 | 0.0 | 0.0 | 0.00 | 0.00 | 0.00 | 56 | 997.3 |
| 20260501214907 | 66 | 234 | 0.0 | 0.0 | 0.00 | 0.00 | 0.00 | 38 | 996.8 |
| 20260501212906 | 65 | 39 | 0.0 | 0.0 | 0.00 | 0.00 | 0.00 | 41 | 995.9 |
| 20260501210907 | 63 | 333 | 0.0 | 0.0 | 0.00 | 0.00 | 0.00 | 47 | 995.8 |
| 20260501204907 | 62 | 333 | 0.0 | 0.0 | 0.00 | 0.00 | 0.00 | 47 | 995.6 |
| 20260501202907 | 59 | 319 | 0.0 | 0.0 | 0.00 | 0.00 | 0.00 | 52 | 995.0 |
| 20260501200908 | 58 | 313 | 0.0 | 0.0 | 0.00 | 0.00 | 0.00 | 57 | 994.7 |
| 20260501194917 | 54 | 314 | 0.0 | 0.0 | 0.00 | 0.00 | 0.00 | 77 | 994.0 |
| 20260501192906 | 50 | 302 | 0.0 | 0.0 | 0.00 | 0.00 | 0.00 | 85 | 994.0 |
| 20260501190906 | 50 | 289 | 0.0 | 0.0 | 0.00 | 0.00 | 0.00 | 85 | 993.7 |
| 20260501184906 | 50 | 286 | 0.0 | 0.0 | 0.00 | 0.00 | 0.00 | 85 | 992.9 |
| 20260501182908 | 50 | 268 | 0.0 | 0.0 | 0.00 | 0.00 | 0.00 | 84 | 992.2 |
| 20260501180906 | 51 | 271 | 0.0 | 0.0 | 0.00 | 0.00 | 0.00 | 83 | 991.6 |
| 20260501174905 | 51 | 271 | 0.0 | 0.0 | 0.00 | 0.00 | 0.00 | 83 | 991.2 |
| 20260501172913 | 51 | 276 | 0.0 | 0.0 | 0.00 | 0.00 | 0.00 | 83 | 991.1 |